| time (UTC) | temp F | wind direction | speed MPH | gust MPH | rain 1hr in | rain 24hr in | rain mn in | humidity % | barometer mb |
| 20260509164232 | 91 | 212 | 0.0 | 0.0 | 0.00 | 0.00 | 0.00 | 15 | 1009.6 |
| 20260509163732 | 91 | 212 | 0.0 | 0.0 | 0.00 | 0.00 | 0.00 | 14 | 1009.6 |
| 20260509163232 | 91 | 211 | 0.0 | 0.0 | 0.00 | 0.00 | 0.00 | 14 | 1009.7 |
| 20260509162729 | 90 | 221 | 0.0 | 0.0 | 0.00 | 0.00 | 0.00 | 15 | 1009.6 |
| 20260509162228 | 90 | 221 | 0.0 | 0.0 | 0.00 | 0.00 | 0.00 | 15 | 1009.6 |
| 20260509161729 | 89 | 249 | 0.0 | 0.0 | 0.00 | 0.00 | 0.00 | 15 | 1009.6 |
| 20260509161230 | 88 | 287 | 0.0 | 0.0 | 0.00 | 0.00 | 0.00 | 15 | 1009.7 |
| 20260509160728 | 89 | 250 | 0.0 | 0.0 | 0.00 | 0.00 | 0.00 | 15 | 1009.6 |
| 20260509160229 | 89 | 258 | 0.0 | 0.0 | 0.00 | 0.00 | 0.00 | 15 | 1009.7 |
| 20260509155728 | 88 | 167 | 0.0 | 0.0 | 0.00 | 0.00 | 0.00 | 15 | 1009.7 |
| 20260509155231 | 88 | 166 | 0.0 | 0.0 | 0.00 | 0.00 | 0.00 | 16 | 1009.7 |
| 20260509154729 | 87 | 167 | 0.0 | 0.0 | 0.00 | 0.00 | 0.00 | 15 | 1009.6 |
| 20260509154229 | 87 | 166 | 0.0 | 0.0 | 0.00 | 0.00 | 0.00 | 16 | 1009.6 |
| 20260509153950 | 87 | 166 | 0.0 | 0.0 | 0.00 | 0.00 | 0.00 | 17 | 1009.5 |
| 20260509153230 | 87 | 169 | 0.0 | 0.0 | 0.00 | 0.00 | 0.00 | 16 | 1009.5 |
| 20260509152729 | 87 | 168 | 0.0 | 0.0 | 0.00 | 0.00 | 0.00 | 18 | 1009.5 |
| 20260509152230 | 86 | 166 | 0.0 | 0.0 | 0.00 | 0.00 | 0.00 | 17 | 1009.5 |
| 20260509151729 | 86 | 166 | 0.0 | 0.0 | 0.00 | 0.00 | 0.00 | 18 | 1009.5 |
| 20260509151228 | 85 | 166 | 0.0 | 0.0 | 0.00 | 0.00 | 0.00 | 18 | 1009.5 |
| 20260509150728 | 85 | 163 | 0.0 | 0.0 | 0.00 | 0.00 | 0.00 | 18 | 1009.5 |
| 20260509150229 | 85 | 163 | 0.0 | 0.0 | 0.00 | 0.00 | 0.00 | 18 | 1009.6 |
| 20260509145731 | 84 | 163 | 0.0 | 0.0 | 0.00 | 0.00 | 0.00 | 19 | 1009.5 |
| 20260509145229 | 84 | 163 | 0.0 | 0.0 | 0.00 | 0.00 | 0.00 | 19 | 1009.5 |
| 20260509144729 | 83 | 163 | 0.0 | 0.0 | 0.00 | 0.00 | 0.00 | 20 | 1009.4 |
| 20260509144229 | 83 | 44 | 0.0 | 0.0 | 0.00 | 0.00 | 0.00 | 20 | 1009.4 |
| 20260509143731 | 83 | 43 | 0.0 | 0.0 | 0.00 | 0.00 | 0.00 | 19 | 1009.4 |
| 20260509143452 | 82 | 43 | 0.0 | 0.0 | 0.00 | 0.00 | 0.00 | 19 | 1009.3 |
| 20260509142726 | 82 | 43 | 0.0 | 0.0 | 0.00 | 0.00 | 0.00 | 19 | 1009.3 |
| 20260509142442 | 81 | 43 | 0.0 | 0.0 | 0.00 | 0.00 | 0.00 | 20 | 1009.2 |
| 20260509141714 | 81 | 43 | 0.0 | 0.0 | 0.00 | 0.00 | 0.00 | 20 | 1009.3 |
| 20260509141208 | 81 | 43 | 0.0 | 0.0 | 0.00 | 0.00 | 0.00 | 20 | 1009.3 |
| 20260509140708 | 80 | 43 | 0.0 | 0.0 | 0.00 | 0.00 | 0.00 | 20 | 1009.2 |
| 20260509140207 | 80 | 43 | 0.0 | 0.0 | 0.00 | 0.00 | 0.00 | 20 | 1009.3 |
| 20260509135706 | 79 | 43 | 0.0 | 0.0 | 0.00 | 0.00 | 0.00 | 20 | 1009.2 |
| 20260509135206 | 79 | 43 | 0.0 | 0.0 | 0.00 | 0.00 | 0.00 | 21 | 1009.1 |
| 20260509134703 | 78 | 43 | 0.0 | 0.0 | 0.00 | 0.00 | 0.00 | 21 | 1009.1 |
| 20260509134202 | 78 | 43 | 0.0 | 0.0 | 0.00 | 0.00 | 0.00 | 21 | 1008.9 |
| 20260509133703 | 78 | 53 | 0.0 | 0.0 | 0.00 | 0.00 | 0.00 | 21 | 1008.9 |
| 20260509133202 | 78 | 53 | 0.0 | 0.0 | 0.00 | 0.00 | 0.00 | 21 | 1008.9 |
| 20260509132702 | 78 | 53 | 0.0 | 0.0 | 0.00 | 0.00 | 0.00 | 21 | 1008.9 |
| 20260509132201 | 78 | 53 | 0.0 | 0.0 | 0.00 | 0.00 | 0.00 | 21 | 1008.8 |
| 20260509131924 | 78 | 53 | 0.0 | 0.0 | 0.00 | 0.00 | 0.00 | 21 | 1008.7 |
| 20260509131202 | 78 | 53 | 0.0 | 0.0 | 0.00 | 0.00 | 0.00 | 21 | 1008.6 |
| 20260509130702 | 78 | 53 | 0.0 | 0.0 | 0.00 | 0.00 | 0.00 | 22 | 1008.6 |
| 20260509130202 | 78 | 53 | 0.0 | 0.0 | 0.00 | 0.00 | 0.00 | 21 | 1008.5 |
| 20260509125701 | 78 | 53 | 0.0 | 0.0 | 0.00 | 0.00 | 0.00 | 21 | 1008.5 |
| 20260509125202 | 78 | 53 | 0.0 | 0.0 | 0.00 | 0.00 | 0.00 | 21 | 1008.5 |
| 20260509124700 | 78 | 53 | 0.0 | 0.0 | 0.00 | 0.00 | 0.00 | 21 | 1008.4 |
| 20260509124202 | 78 | 53 | 0.0 | 0.0 | 0.00 | 0.00 | 0.00 | 21 | 1008.3 |
| 20260509123700 | 78 | 53 | 0.0 | 0.0 | 0.00 | 0.00 | 0.00 | 21 | 1008.2 |
| 20260509123201 | 78 | 53 | 0.0 | 0.0 | 0.00 | 0.00 | 0.00 | 21 | 1008.1 |
| 20260509122701 | 78 | 53 | 0.0 | 0.0 | 0.00 | 0.00 | 0.00 | 21 | 1008.1 |
| 20260509122202 | 78 | 53 | 0.0 | 0.0 | 0.00 | 0.00 | 0.00 | 21 | 1008.0 |
| 20260509121700 | 79 | 53 | 0.0 | 0.0 | 0.00 | 0.00 | 0.00 | 21 | 1008.0 |
| 20260509121202 | 79 | 53 | 0.0 | 0.0 | 0.00 | 0.00 | 0.00 | 21 | 1008.0 |
| 20260509120701 | 79 | 53 | 0.0 | 0.0 | 0.00 | 0.00 | 0.00 | 21 | 1008.0 |
| 20260509120201 | 79 | 53 | 0.0 | 0.0 | 0.00 | 0.00 | 0.00 | 21 | 1008.0 |
| 20260509115700 | 78 | 53 | 0.0 | 0.0 | 0.00 | 0.00 | 0.00 | 21 | 1007.8 |
| 20260509115201 | 79 | 211 | 0.0 | 0.0 | 0.00 | 0.00 | 0.00 | 21 | 1007.8 |
| 20260509114700 | 79 | 215 | 0.0 | 0.0 | 0.00 | 0.00 | 0.00 | 21 | 1007.7 |
| 20260509114202 | 79 | 215 | 0.0 | 0.0 | 0.00 | 0.00 | 0.00 | 21 | 1007.7 |
| 20260509113702 | 79 | 215 | 0.0 | 0.0 | 0.00 | 0.00 | 0.00 | 21 | 1007.6 |
| 20260509113201 | 79 | 215 | 0.0 | 0.0 | 0.00 | 0.00 | 0.00 | 20 | 1007.6 |
| 20260509112701 | 79 | 215 | 0.0 | 0.0 | 0.00 | 0.00 | 0.00 | 20 | 1007.6 |
| 20260509112425 | 79 | 215 | 0.0 | 0.0 | 0.00 | 0.00 | 0.00 | 20 | 1007.6 |
| 20260509111701 | 79 | 215 | 0.0 | 0.0 | 0.00 | 0.00 | 0.00 | 20 | 1007.6 |
| 20260509111201 | 79 | 215 | 0.0 | 0.0 | 0.00 | 0.00 | 0.00 | 20 | 1007.5 |
| 20260509110701 | 80 | 215 | 0.0 | 0.0 | 0.00 | 0.00 | 0.00 | 20 | 1007.5 |
| 20260509110200 | 80 | 215 | 0.0 | 0.0 | 0.00 | 0.00 | 0.00 | 19 | 1007.5 |
| 20260509105701 | 80 | 215 | 0.0 | 0.0 | 0.00 | 0.00 | 0.00 | 19 | 1007.4 |
| 20260509105202 | 80 | 216 | 0.0 | 0.0 | 0.00 | 0.00 | 0.00 | 19 | 1007.4 |
| 20260509104702 | 80 | 217 | 0.0 | 0.0 | 0.00 | 0.00 | 0.00 | 18 | 1007.4 |
| 20260509104201 | 80 | 216 | 0.0 | 0.0 | 0.00 | 0.00 | 0.00 | 18 | 1007.4 |
| 20260509103702 | 81 | 217 | 0.0 | 0.0 | 0.00 | 0.00 | 0.00 | 18 | 1007.4 |
| 20260509103201 | 81 | 217 | 0.0 | 0.0 | 0.00 | 0.00 | 0.00 | 18 | 1007.4 |
| 20260509102701 | 81 | 217 | 0.0 | 0.0 | 0.00 | 0.00 | 0.00 | 17 | 1007.4 |
| 20260509102201 | 81 | 216 | 0.0 | 0.0 | 0.00 | 0.00 | 0.00 | 17 | 1007.3 |
| 20260509101701 | 81 | 216 | 0.0 | 0.0 | 0.00 | 0.00 | 0.00 | 17 | 1007.3 |
| 20260509101201 | 81 | 216 | 0.0 | 0.0 | 0.00 | 0.00 | 0.00 | 17 | 1007.4 |
| 20260509100702 | 81 | 188 | 0.0 | 0.0 | 0.00 | 0.00 | 0.00 | 17 | 1007.4 |
| 20260509100200 | 82 | 181 | 0.0 | 0.0 | 0.00 | 0.00 | 0.00 | 17 | 1007.4 |
| 20260509095701 | 82 | 181 | 0.0 | 0.0 | 0.00 | 0.00 | 0.00 | 17 | 1007.4 |
| 20260509095202 | 82 | 180 | 0.0 | 0.0 | 0.00 | 0.00 | 0.00 | 16 | 1007.4 |
| 20260509094929 | 82 | 180 | 0.0 | 0.0 | 0.00 | 0.00 | 0.00 | 16 | 1007.4 |
| 20260509094158 | 82 | 180 | 0.0 | 0.0 | 0.00 | 0.00 | 0.00 | 16 | 1007.3 |
| 20260509093658 | 82 | 180 | 0.0 | 0.0 | 0.00 | 0.00 | 0.00 | 16 | 1007.3 |
| 20260509093643 | 82 | 180 | 0.0 | 0.0 | 0.00 | 0.00 | 0.00 | 16 | 1007.4 |
| 20260509092659 | 82 | 180 | 0.0 | 0.0 | 0.00 | 0.00 | 0.00 | 16 | 1007.4 |
| 20260509092156 | 82 | 180 | 0.0 | 0.0 | 0.00 | 0.00 | 0.00 | 16 | 1007.4 |
| 20260509091918 | 83 | 180 | 0.0 | 0.0 | 0.00 | 0.00 | 0.00 | 16 | 1007.4 |
| 20260509091154 | 83 | 180 | 0.0 | 0.0 | 0.00 | 0.00 | 0.00 | 16 | 1007.4 |
| 20260509090914 | 83 | 180 | 0.0 | 0.0 | 0.00 | 0.00 | 0.00 | 16 | 1007.4 |
| 20260509090635 | 83 | 181 | 0.0 | 0.0 | 0.00 | 0.00 | 0.00 | 17 | 1007.5 |
| 20260509085650 | 83 | 180 | 0.0 | 0.0 | 0.00 | 0.00 | 0.00 | 17 | 1007.4 |
| 20260509085149 | 83 | 180 | 0.0 | 0.0 | 0.00 | 0.00 | 0.00 | 17 | 1007.4 |
| 20260509084650 | 83 | 181 | 0.0 | 0.0 | 0.00 | 0.00 | 0.00 | 17 | 1007.4 |
| 20260509084150 | 83 | 181 | 0.0 | 0.0 | 0.00 | 0.00 | 0.00 | 17 | 1007.4 |
| 20260509083649 | 83 | 180 | 0.0 | 0.0 | 0.00 | 0.00 | 0.00 | 17 | 1007.3 |
| 20260509083146 | 83 | 181 | 0.0 | 0.0 | 0.00 | 0.00 | 0.00 | 17 | 1007.3 |
| 20260509082645 | 83 | 181 | 0.0 | 0.0 | 0.00 | 0.00 | 0.00 | 17 | 1007.3 |
| 20260509082146 | 83 | 181 | 0.0 | 0.0 | 0.00 | 0.00 | 0.00 | 17 | 1007.3 |
| 20260509081646 | 83 | 181 | 0.0 | 0.0 | 0.00 | 0.00 | 0.00 | 17 | 1007.3 |
| 20260509081146 | 84 | 181 | 0.0 | 0.0 | 0.00 | 0.00 | 0.00 | 17 | 1007.3 |
| 20260509080645 | 84 | 181 | 0.0 | 0.0 | 0.00 | 0.00 | 0.00 | 17 | 1007.3 |
| 20260509080145 | 84 | 181 | 0.0 | 0.0 | 0.00 | 0.00 | 0.00 | 17 | 1007.3 |
| 20260509075646 | 84 | 181 | 0.0 | 0.0 | 0.00 | 0.00 | 0.00 | 17 | 1007.3 |
| 20260509075146 | 84 | 181 | 0.0 | 0.0 | 0.00 | 0.00 | 0.00 | 17 | 1007.3 |
| 20260509074641 | 84 | 181 | 0.0 | 0.0 | 0.00 | 0.00 | 0.00 | 17 | 1007.2 |
| 20260509074141 | 84 | 181 | 0.0 | 0.0 | 0.00 | 0.00 | 0.00 | 17 | 1007.3 |
| 20260509073642 | 84 | 180 | 0.0 | 0.0 | 0.00 | 0.00 | 0.00 | 17 | 1007.2 |
| 20260509073141 | 84 | 177 | 0.0 | 0.0 | 0.00 | 0.00 | 0.00 | 17 | 1007.3 |
| 20260509072642 | 84 | 267 | 0.0 | 0.0 | 0.00 | 0.00 | 0.00 | 17 | 1007.3 |
| 20260509072619 | 85 | 266 | 0.0 | 0.0 | 0.00 | 0.00 | 0.00 | 17 | 1007.4 |
| 20260509071641 | 85 | 267 | 0.0 | 0.0 | 0.00 | 0.00 | 0.00 | 17 | 1007.3 |
| 20260509071141 | 85 | 271 | 0.0 | 0.0 | 0.00 | 0.00 | 0.00 | 17 | 1007.3 |
| 20260509070642 | 85 | 271 | 0.0 | 0.0 | 0.00 | 0.00 | 0.00 | 17 | 1007.3 |
| 20260509070136 | 85 | 271 | 0.0 | 0.0 | 0.00 | 0.00 | 0.00 | 17 | 1007.3 |
| 20260509065634 | 85 | 271 | 0.0 | 0.0 | 0.00 | 0.00 | 0.00 | 17 | 1007.2 |
| 20260509065134 | 85 | 271 | 0.0 | 0.0 | 0.00 | 0.00 | 0.00 | 17 | 1007.3 |
| 20260509064634 | 85 | 271 | 0.0 | 0.0 | 0.00 | 0.00 | 0.00 | 17 | 1007.3 |
| 20260509064629 | 85 | 271 | 0.0 | 0.0 | 0.00 | 0.00 | 0.00 | 17 | 1007.3 |
| 20260509063634 | 86 | 271 | 0.0 | 0.0 | 0.00 | 0.00 | 0.00 | 17 | 1007.2 |
| 20260509063134 | 86 | 271 | 0.0 | 0.0 | 0.00 | 0.00 | 0.00 | 17 | 1007.3 |
| 20260509062853 | 86 | 271 | 0.0 | 0.0 | 0.00 | 0.00 | 0.00 | 17 | 1007.2 |
| 20260509062135 | 86 | 271 | 0.0 | 0.0 | 0.00 | 0.00 | 0.00 | 17 | 1007.2 |
| 20260509061635 | 86 | 271 | 0.0 | 0.0 | 0.00 | 0.00 | 0.00 | 17 | 1007.2 |
| 20260509061132 | 87 | 261 | 0.0 | 0.0 | 0.00 | 0.00 | 0.00 | 17 | 1007.1 |
| 20260509060632 | 87 | 261 | 0.0 | 0.0 | 0.00 | 0.00 | 0.00 | 17 | 1007.1 |
| 20260509060133 | 87 | 261 | 0.0 | 0.0 | 0.00 | 0.00 | 0.00 | 17 | 1007.1 |
| 20260509055632 | 87 | 209 | 0.0 | 0.0 | 0.00 | 0.00 | 0.00 | 17 | 1007.0 |
| 20260509055352 | 87 | 213 | 0.0 | 0.0 | 0.00 | 0.00 | 0.00 | 17 | 1007.1 |
| 20260509054632 | 87 | 213 | 0.0 | 0.0 | 0.00 | 0.00 | 0.00 | 17 | 1007.1 |
| 20260509054358 | 87 | 213 | 0.0 | 0.0 | 0.00 | 0.00 | 0.00 | 17 | 1007.1 |
| 20260509053630 | 87 | 213 | 0.0 | 0.0 | 0.00 | 0.00 | 0.00 | 17 | 1007.1 |
| 20260509053130 | 87 | 213 | 0.0 | 0.0 | 0.00 | 0.00 | 0.00 | 17 | 1007.1 |
| 20260509052630 | 88 | 208 | 0.0 | 0.0 | 0.00 | 0.00 | 0.00 | 17 | 1007.1 |
| 20260509052353 | 88 | 208 | 0.0 | 0.0 | 0.00 | 0.00 | 0.00 | 17 | 1007.1 |
| 20260509051630 | 88 | 208 | 0.0 | 0.0 | 0.00 | 0.00 | 0.00 | 17 | 1007.1 |
| 20260509051130 | 88 | 208 | 0.0 | 0.0 | 0.00 | 0.00 | 0.00 | 17 | 1007.1 |
| 20260509050632 | 88 | 208 | 0.0 | 0.0 | 0.00 | 0.00 | 0.00 | 17 | 1007.1 |
| 20260509050129 | 89 | 208 | 0.0 | 0.0 | 0.00 | 0.00 | 0.00 | 17 | 1007.0 |
| 20260509045630 | 89 | 208 | 0.0 | 0.0 | 0.00 | 0.00 | 0.00 | 17 | 1007.0 |
| 20260509045129 | 89 | 208 | 0.0 | 0.0 | 0.00 | 0.00 | 0.00 | 17 | 1007.0 |
| 20260509044630 | 89 | 208 | 0.0 | 0.0 | 0.00 | 0.00 | 0.00 | 16 | 1007.0 |
| 20260509044129 | 89 | 208 | 0.0 | 0.0 | 0.00 | 0.00 | 0.00 | 16 | 1006.9 |
| 20260509043629 | 89 | 208 | 0.0 | 0.0 | 0.00 | 0.00 | 0.00 | 16 | 1006.8 |
| 20260509043129 | 90 | 208 | 0.0 | 0.0 | 0.00 | 0.00 | 0.00 | 16 | 1006.8 |
| 20260509042630 | 90 | 209 | 0.0 | 0.0 | 0.00 | 0.00 | 0.00 | 16 | 1006.8 |
| 20260509042129 | 90 | 209 | 0.0 | 0.0 | 0.00 | 0.00 | 0.00 | 16 | 1006.8 |
| 20260509041629 | 90 | 209 | 0.0 | 0.0 | 0.00 | 0.00 | 0.00 | 16 | 1006.7 |
| 20260509041129 | 91 | 208 | 0.0 | 0.0 | 0.00 | 0.00 | 0.00 | 16 | 1006.7 |
| 20260509040627 | 91 | 208 | 0.0 | 0.0 | 0.00 | 0.00 | 0.00 | 16 | 1006.6 |
| 20260509040122 | 91 | 208 | 0.0 | 0.0 | 0.00 | 0.00 | 0.00 | 16 | 1006.5 |
| 20260509035615 | 92 | 208 | 0.0 | 0.0 | 0.00 | 0.00 | 0.00 | 15 | 1006.4 |
| 20260509035116 | 92 | 206 | 0.0 | 5.0 | 0.00 | 0.00 | 0.00 | 15 | 1006.4 |
| 20260509034614 | 92 | 215 | 0.0 | 7.0 | 0.00 | 0.00 | 0.00 | 15 | 1006.3 |
| 20260509034114 | 92 | 216 | 0.0 | 7.0 | 0.00 | 0.00 | 0.00 | 15 | 1006.3 |
| 20260509033834 | 92 | 209 | 0.0 | 3.0 | 0.00 | 0.00 | 0.00 | 15 | 1006.2 |
| 20260509033114 | 92 | 217 | 0.0 | 3.0 | 0.00 | 0.00 | 0.00 | 15 | 1006.1 |
| 20260509032614 | 93 | 229 | 0.0 | 1.0 | 0.00 | 0.00 | 0.00 | 15 | 1006.0 |
| 20260509032114 | 93 | 206 | 0.0 | 0.0 | 0.00 | 0.00 | 0.00 | 15 | 1006.0 |
| 20260509032101 | 93 | 217 | 0.0 | 0.0 | 0.00 | 0.00 | 0.00 | 15 | 1005.9 |
| 20260509031112 | 93 | 216 | 0.0 | 0.0 | 0.00 | 0.00 | 0.00 | 14 | 1005.9 |
| 20260509030610 | 93 | 215 | 0.0 | 0.0 | 0.00 | 0.00 | 0.00 | 14 | 1005.9 |
| 20260509030108 | 94 | 209 | 0.0 | 0.0 | 0.00 | 0.00 | 0.00 | 14 | 1005.9 |
| 20260509025608 | 94 | 198 | 0.0 | 0.0 | 0.00 | 0.00 | 0.00 | 14 | 1005.8 |
| 20260509025107 | 94 | 222 | 0.0 | 6.0 | 0.00 | 0.00 | 0.00 | 14 | 1005.6 |
| 20260509024606 | 94 | 217 | 0.0 | 6.0 | 0.00 | 0.00 | 0.00 | 13 | 1005.6 |
| 20260509024103 | 94 | 213 | 0.0 | 2.0 | 0.00 | 0.00 | 0.00 | 13 | 1005.5 |
| 20260509023602 | 95 | 209 | 0.0 | 1.0 | 0.00 | 0.00 | 0.00 | 13 | 1005.4 |
| 20260509023101 | 95 | 209 | 0.0 | 6.0 | 0.00 | 0.00 | 0.00 | 13 | 1005.4 |
| 20260509022602 | 95 | 205 | 1.0 | 10.0 | 0.00 | 0.00 | 0.00 | 13 | 1005.2 |
| 20260509022332 | 96 | 204 | 0.0 | 10.0 | 0.00 | 0.00 | 0.00 | 13 | 1005.2 |
| 20260509021557 | 96 | 227 | 0.0 | 4.0 | 0.00 | 0.00 | 0.00 | 12 | 1005.1 |
| 20260509021052 | 96 | 197 | 1.0 | 8.0 | 0.00 | 0.00 | 0.00 | 12 | 1005.1 |
| 20260509020808 | 96 | 213 | 2.0 | 10.0 | 0.00 | 0.00 | 0.00 | 12 | 1005.1 |
| 20260509020040 | 97 | 205 | 1.0 | 10.0 | 0.00 | 0.00 | 0.00 | 12 | 1005.0 |
| 20260509015536 | 97 | 214 | 0.0 | 5.0 | 0.00 | 0.00 | 0.00 | 12 | 1005.0 |
| 20260509015036 | 97 | 209 | 1.0 | 14.0 | 0.00 | 0.00 | 0.00 | 12 | 1005.0 |
| 20260509014757 | 97 | 203 | 1.0 | 14.0 | 0.00 | 0.00 | 0.00 | 11 | 1005.0 |
| 20260509014036 | 98 | 182 | 2.0 | 15.0 | 0.00 | 0.00 | 0.00 | 12 | 1004.9 |
| 20260509013536 | 98 | 252 | 2.0 | 15.0 | 0.00 | 0.00 | 0.00 | 12 | 1004.9 |
| 20260509013036 | 98 | 215 | 1.0 | 10.0 | 0.00 | 0.00 | 0.00 | 11 | 1004.9 |
| 20260509012536 | 98 | 189 | 0.0 | 8.0 | 0.00 | 0.00 | 0.00 | 11 | 1004.9 |
| 20260509012036 | 99 | 210 | 0.0 | 3.0 | 0.00 | 0.00 | 0.00 | 11 | 1004.9 |
| 20260509011536 | 99 | 209 | 0.0 | 8.0 | 0.00 | 0.00 | 0.00 | 11 | 1005.0 |
| 20260509011036 | 99 | 229 | 1.0 | 8.0 | 0.00 | 0.00 | 0.00 | 11 | 1005.0 |
| 20260509010754 | 99 | 200 | 2.0 | 12.0 | 0.00 | 0.00 | 0.00 | 11 | 1005.0 |
| 20260509010036 | 99 | 226 | 2.0 | 12.0 | 0.00 | 0.00 | 0.00 | 11 | 1005.1 |
| 20260509005536 | 99 | 205 | 0.0 | 8.0 | 0.00 | 0.00 | 0.00 | 11 | 1005.1 |
| 20260509005035 | 99 | 238 | 1.0 | 8.0 | 0.00 | 0.00 | 0.00 | 11 | 1005.1 |
| 20260509004534 | 100 | 225 | 1.0 | 10.0 | 0.00 | 0.00 | 0.00 | 11 | 1005.2 |
| 20260509004253 | 100 | 216 | 0.0 | 10.0 | 0.00 | 0.00 | 0.00 | 11 | 1005.2 |
| 20260509003534 | 100 | 244 | 0.0 | 3.0 | 0.00 | 0.00 | 0.00 | 11 | 1005.2 |
| 20260509003256 | 100 | 154 | 0.0 | 8.0 | 0.00 | 0.00 | 0.00 | 11 | 1005.4 |
| 20260509002534 | 100 | 240 | 2.0 | 13.0 | 0.00 | 0.00 | 0.00 | 11 | 1005.4 |
| 20260509002517 | 100 | 215 | 2.0 | 20.0 | 0.00 | 0.00 | 0.00 | 11 | 1005.5 |
| 20260509001534 | 100 | 247 | 2.0 | 20.0 | 0.00 | 0.00 | 0.00 | 11 | 1005.5 |
| 20260509001033 | 100 | 169 | 2.0 | 17.0 | 0.00 | 0.00 | 0.00 | 11 | 1005.5 |
| 20260509000759 | 100 | 218 | 1.0 | 10.0 | 0.00 | 0.00 | 0.00 | 11 | 1005.5 |
| 20260509000033 | 100 | 235 | 1.0 | 14.0 | 0.00 | 0.00 | 0.00 | 11 | 1005.5 |
| 20260508235534 | 100 | 212 | 1.0 | 14.0 | 0.00 | 0.00 | 0.00 | 11 | 1005.6 |
| 20260508235033 | 100 | 252 | 1.0 | 11.0 | 0.00 | 0.00 | 0.00 | 11 | 1005.6 |
| 20260508234756 | 100 | 226 | 2.0 | 21.0 | 0.00 | 0.00 | 0.00 | 11 | 1005.7 |
| 20260508234032 | 100 | 248 | 2.0 | 21.0 | 0.00 | 0.00 | 0.00 | 11 | 1005.8 |
| 20260508233531 | 100 | 228 | 1.0 | 11.0 | 0.00 | 0.00 | 0.00 | 11 | 1005.8 |
| 20260508233257 | 100 | 252 | 1.0 | 11.0 | 0.00 | 0.00 | 0.00 | 11 | 1005.9 |
| 20260508232531 | 100 | 248 | 2.0 | 11.0 | 0.00 | 0.00 | 0.00 | 11 | 1005.9 |
| 20260508232031 | 100 | 218 | 3.0 | 15.0 | 0.00 | 0.00 | 0.00 | 11 | 1005.9 |
| 20260508231532 | 99 | 250 | 3.0 | 17.0 | 0.00 | 0.00 | 0.00 | 12 | 1006.0 |
| 20260508231032 | 100 | 211 | 1.0 | 17.0 | 0.00 | 0.00 | 0.00 | 12 | 1006.0 |
| 20260508230532 | 100 | 261 | 1.0 | 15.0 | 0.00 | 0.00 | 0.00 | 12 | 1006.1 |
| 20260508230032 | 100 | 212 | 0.0 | 11.0 | 0.00 | 0.00 | 0.00 | 12 | 1006.1 |
| 20260508225531 | 100 | 255 | 0.0 | 5.0 | 0.00 | 0.00 | 0.00 | 12 | 1006.2 |
| 20260508225252 | 99 | 271 | 0.0 | 9.0 | 0.00 | 0.00 | 0.00 | 12 | 1006.3 |
| 20260508224529 | 99 | 286 | 1.0 | 9.0 | 0.00 | 0.00 | 0.00 | 12 | 1006.3 |
| 20260508224259 | 99 | 251 | 2.0 | 20.0 | 0.00 | 0.00 | 0.00 | 13 | 1006.5 |
| 20260508223530 | 99 | 221 | 1.0 | 20.0 | 0.00 | 0.00 | 0.00 | 13 | 1006.5 |
| 20260508223029 | 99 | 240 | 1.0 | 12.0 | 0.00 | 0.00 | 0.00 | 14 | 1006.6 |
| 20260508222529 | 99 | 229 | 1.0 | 12.0 | 0.00 | 0.00 | 0.00 | 14 | 1006.8 |
| 20260508222029 | 98 | 213 | 0.0 | 5.0 | 0.00 | 0.00 | 0.00 | 14 | 1006.8 |
| 20260508221528 | 98 | 232 | 1.0 | 6.0 | 0.00 | 0.00 | 0.00 | 14 | 1006.9 |
| 20260508221305 | 98 | 221 | 1.0 | 6.0 | 0.00 | 0.00 | 0.00 | 14 | 1007.1 |
| 20260508220529 | 98 | 230 | 0.0 | 4.0 | 0.00 | 0.00 | 0.00 | 14 | 1007.2 |
| 20260508220029 | 98 | 265 | 1.0 | 10.0 | 0.00 | 0.00 | 0.00 | 13 | 1007.4 |
| 20260508215752 | 98 | 211 | 1.0 | 10.0 | 0.00 | 0.00 | 0.00 | 13 | 1007.4 |
| 20260508215029 | 98 | 207 | 1.0 | 9.0 | 0.00 | 0.00 | 0.00 | 14 | 1007.4 |
| 20260508214529 | 98 | 268 | 1.0 | 13.0 | 0.00 | 0.00 | 0.00 | 14 | 1007.5 |
| 20260508214517 | 97 | 186 | 1.0 | 13.0 | 0.00 | 0.00 | 0.00 | 14 | 1007.6 |
| 20260508213529 | 97 | 210 | 1.0 | 10.0 | 0.00 | 0.00 | 0.00 | 14 | 1007.6 |
| 20260508213031 | 97 | 212 | 1.0 | 10.0 | 0.00 | 0.00 | 0.00 | 14 | 1007.8 |
| 20260508212751 | 97 | 212 | 0.0 | 7.0 | 0.00 | 0.00 | 0.00 | 14 | 1008.0 |
| 20260508212258 | 96 | 257 | 0.0 | 8.0 | 0.00 | 0.00 | 0.00 | 14 | 1008.1 |
| 20260508211529 | 96 | 275 | 2.0 | 16.0 | 0.00 | 0.00 | 0.00 | 14 | 1008.2 |
| 20260508211253 | 97 | 187 | 2.0 | 16.0 | 0.00 | 0.00 | 0.00 | 14 | 1008.2 |
| 20260508210530 | 97 | 220 | 0.0 | 14.0 | 0.00 | 0.00 | 0.00 | 14 | 1008.3 |
| 20260508210029 | 96 | 219 | 0.0 | 10.0 | 0.00 | 0.00 | 0.00 | 14 | 1008.4 |
| 20260508205529 | 96 | 232 | 1.0 | 10.0 | 0.00 | 0.00 | 0.00 | 14 | 1008.4 |
| 20260508205029 | 96 | 211 | 1.0 | 8.0 | 0.00 | 0.00 | 0.00 | 14 | 1008.5 |
| 20260508204529 | 95 | 219 | 0.0 | 8.0 | 0.00 | 0.00 | 0.00 | 14 | 1008.6 |
| 20260508204253 | 95 | 199 | 0.0 | 7.0 | 0.00 | 0.00 | 0.00 | 14 | 1008.6 |
| 20260508203530 | 95 | 218 | 0.0 | 7.0 | 0.00 | 0.00 | 0.00 | 14 | 1008.7 |
| 20260508203030 | 95 | 258 | 1.0 | 7.0 | 0.00 | 0.00 | 0.00 | 14 | 1008.8 |
| 20260508202528 | 95 | 197 | 1.0 | 6.0 | 0.00 | 0.00 | 0.00 | 14 | 1008.9 |
| 20260508202029 | 95 | 232 | 0.0 | 5.0 | 0.00 | 0.00 | 0.00 | 14 | 1008.9 |
| 20260508201530 | 95 | 186 | 0.0 | 5.0 | 0.00 | 0.00 | 0.00 | 15 | 1009.0 |
| 20260508201029 | 95 | 234 | 0.0 | 3.0 | 0.00 | 0.00 | 0.00 | 15 | 1009.1 |
| 20260508200528 | 95 | 174 | 0.0 | 3.0 | 0.00 | 0.00 | 0.00 | 14 | 1009.1 |
| 20260508200029 | 94 | 203 | 0.0 | 1.0 | 0.00 | 0.00 | 0.00 | 15 | 1009.1 |
| 20260508195529 | 94 | 173 | 0.0 | 1.0 | 0.00 | 0.00 | 0.00 | 15 | 1009.2 |
| 20260508195030 | 93 | 112 | 0.0 | 0.0 | 0.00 | 0.00 | 0.00 | 15 | 1009.2 |
| 20260508194758 | 93 | 138 | 0.0 | 2.0 | 0.00 | 0.00 | 0.00 | 15 | 1009.2 |
| 20260508194029 | 93 | 253 | 0.0 | 2.0 | 0.00 | 0.00 | 0.00 | 15 | 1009.3 |
| 20260508193528 | 92 | 167 | 0.0 | 1.0 | 0.00 | 0.00 | 0.00 | 16 | 1009.4 |
| 20260508193029 | 92 | 205 | 0.0 | 2.0 | 0.00 | 0.00 | 0.00 | 16 | 1009.5 |
| 20260508192529 | 92 | 100 | 0.0 | 9.0 | 0.00 | 0.00 | 0.00 | 16 | 1009.6 |
| 20260508192522 | 92 | 182 | 0.0 | 9.0 | 0.00 | 0.00 | 0.00 | 16 | 1009.7 |
| 20260508191528 | 92 | 184 | 0.0 | 0.0 | 0.00 | 0.00 | 0.00 | 16 | 1009.8 |
| 20260508191029 | 92 | 237 | 0.0 | 1.0 | 0.00 | 0.00 | 0.00 | 16 | 1010.0 |
| 20260508190530 | 92 | 205 | 0.0 | 1.0 | 0.00 | 0.00 | 0.00 | 16 | 1010.0 |
| 20260508190029 | 91 | 183 | 0.0 | 0.0 | 0.00 | 0.00 | 0.00 | 17 | 1010.0 |
| 20260508185529 | 91 | 164 | 0.0 | 0.0 | 0.00 | 0.00 | 0.00 | 16 | 1010.0 |
| 20260508185029 | 91 | 203 | 0.0 | 1.0 | 0.00 | 0.00 | 0.00 | 16 | 1010.1 |
| 20260508184529 | 91 | 188 | 0.0 | 1.0 | 0.00 | 0.00 | 0.00 | 17 | 1010.2 |
| 20260508184030 | 90 | 130 | 0.0 | 1.0 | 0.00 | 0.00 | 0.00 | 16 | 1010.2 |
| 20260508183529 | 90 | 226 | 0.0 | 3.0 | 0.00 | 0.00 | 0.00 | 17 | 1010.4 |
| 20260508183029 | 90 | 194 | 0.0 | 3.0 | 0.00 | 0.00 | 0.00 | 17 | 1010.6 |
| 20260508182529 | 89 | 232 | 0.0 | 4.0 | 0.00 | 0.00 | 0.00 | 17 | 1010.6 |
| 20260508182029 | 89 | 216 | 0.0 | 4.0 | 0.00 | 0.00 | 0.00 | 17 | 1010.6 |
| 20260508181530 | 89 | 155 | 0.0 | 3.0 | 0.00 | 0.00 | 0.00 | 17 | 1010.7 |
| 20260508181028 | 89 | 144 | 0.0 | 5.0 | 0.00 | 0.00 | 0.00 | 17 | 1010.7 |
| 20260508180529 | 89 | 128 | 0.0 | 5.0 | 0.00 | 0.00 | 0.00 | 17 | 1010.7 |
| 20260508180030 | 89 | 136 | 0.0 | 0.0 | 0.00 | 0.00 | 0.00 | 18 | 1010.8 |
| 20260508175529 | 88 | 190 | 0.0 | 0.0 | 0.00 | 0.00 | 0.00 | 18 | 1010.9 |
| 20260508175030 | 88 | 146 | 0.0 | 0.0 | 0.00 | 0.00 | 0.00 | 18 | 1010.9 |
| 20260508174527 | 87 | 139 | 0.0 | 0.0 | 0.00 | 0.00 | 0.00 | 19 | 1010.9 |
| 20260508174020 | 87 | 177 | 0.0 | 9.0 | 0.00 | 0.00 | 0.00 | 19 | 1010.9 |
| 20260508173518 | 87 | 195 | 0.0 | 9.0 | 0.00 | 0.00 | 0.00 | 19 | 1010.9 |
| 20260508173239 | 87 | 229 | 0.0 | 1.0 | 0.00 | 0.00 | 0.00 | 19 | 1011.0 |
| 20260508172516 | 87 | 156 | 0.0 | 1.0 | 0.00 | 0.00 | 0.00 | 19 | 1011.1 |
| 20260508172017 | 86 | 184 | 0.0 | 1.0 | 0.00 | 0.00 | 0.00 | 20 | 1011.0 |
| 20260508171517 | 86 | 138 | 0.0 | 1.0 | 0.00 | 0.00 | 0.00 | 19 | 1011.0 |
| 20260508171017 | 86 | 182 | 0.0 | 1.0 | 0.00 | 0.00 | 0.00 | 19 | 1011.2 |
| 20260508170516 | 86 | 132 | 0.0 | 1.0 | 0.00 | 0.00 | 0.00 | 19 | 1011.3 |
| 20260508170015 | 86 | 192 | 0.0 | 0.0 | 0.00 | 0.00 | 0.00 | 19 | 1011.3 |
| 20260508165515 | 86 | 202 | 0.0 | 1.0 | 0.00 | 0.00 | 0.00 | 20 | 1011.2 |
| 20260508165015 | 86 | 213 | 0.0 | 1.0 | 0.00 | 0.00 | 0.00 | 20 | 1011.2 |